User: anonymous   Login
Location: Unspecified
(0.0000°N, 0.0000°E)
Time: 00:09:12
(UTC+00:00)
Language:

BRO-6 - Orbit

View from above orbital plane
View from above orbital plane
View from above satellite
View from above satellite

Ground track
Ground track

The orbit is defined by the following mean orbital elements,

1 52422U          26145.60325824 +.00000000 +00000-0 +36458-3 0 00005
2 52422  97.3402 236.2519 0005713 147.5345 212.6258 15.49036940    02
Epoch (UTC): 25 May 2026 14:28:41
Eccentricity: 0.0005713
inclination: 97.3402°
perigee height: 416 km
apogee height: 423 km
right ascension of ascending node: 236.2519°
argument of perigee: 147.5345°
revolutions per day: 15.49036940
mean anomaly at epoch: 212.6258°

The dashed part of the orbit path shows where the satellite is in the earth's shadow,  

DLR